1531069200.84,23430,24.25,74174.0,7.09,-20.79,-21.09,0,*73
1531069202.12,23431,24.25,74172.8,7.07,-20.49,-20.83,0,*7C
1531069203.37,23432,24.25,74174.8,7.07,-20.73,-20.99,0,*7D
1531069204.62,23433,24.25,74174.5,7.07,-20.63,-20.79,0,*73
1531069205.87,23434,24.25,74174.3,7.05,-20.79,-21.03,0,*71
1531069207.12,23435,24.25,74176.5,7.03,-20.79,-20.89,0,*75
1531069208.35,23436,24.25,74174.8,7.05,-20.69,-20.99,0,*70
1531069209.55,23437,24.25,74176.0,7.05,-20.05,-20.39,0,*71
1531069210.8,23438,24.25,74174.3,7.05,-20.79,-20.99,0,*7F
1531069212.04,23439,24.25,74174.5,7.05,-20.53,-20.79,0,*78
1531069213.27,23440,24.25,74174.5,7.07,-20.73,-20.93,0,*72
1531069214.5,23441,24.25,74172.5,7.03,-20.39,-20.63,0,*76
1531069215.78,23442,24.25,74174.0,7.03,-20.19,-20.53,0,*74
1531069217.01,23443,24.25,74174.3,7.05,-19.95,-20.19,0,*73
1531069218.29,23444,24.25,74176.0,7.03,-20.19,-20.53,0,*72
1531069219.52,23445,24.25,74174.5,7.03,-20.39,-20.63,0,*72
1531069220.76,23446,24.25,74176.0,7.05,-20.35,-20.53,0,*78
1531069221.98,23447,24.25,74172.5,7.05,-20.05,-20.35,0,*7A
1531069223.23,23448,24.25,74172.8,7.03,-20.35,-20.63,0,*73
1531069224.43,23449,24.25,74172.8,7.05,-19.91,-20.09,0,*7C
1531069225.66,23450,24.25,74172.8,7.03,-19.95,-20.09,0,*76
1531069226.91,23451,24.25,74176.0,7.03,-20.09,-20.53,0,*77
1531069228.14,23452,24.25,74172.0,7.05,-20.25,-20.53,0,*7C
1531069229.36,23453,24.25,74172.5,7.05,-19.95,-20.35,0,*7C
1531069230.64,23454,24.25,74172.5,7.03,-20.19,-20.49,0,*78
1531069231.92,23455,24.25,74172.5,7.03,-20.19,-20.49,0,*79
1531069233.17,23456,24.25,74172.3,7.05,-20.19,-20.53,0,*77
1531069234.44,23457,24.25,74172.8,7.03,-20.53,-20.79,0,*76
1531069235.69,23458,24.25,74172.0,7.03,-20.25,-20.53,0,*70
1531069236.92,23459,24.25,74172.5,7.03,-20.05,-20.39,0,*7F
1531069238.17,23460,24.25,74174.8,7.03,-20.25,-20.53,0,*7B
1531069239.36,23461,24.25,74170.3,6.97,-20.05,-20.29,0,*79
1531069240.59,23462,24.25,74174.5,6.99,-20.29,-20.59,0,*7D
1531069241.85,23463,24.25,74172.5,6.99,-20.59,-20.83,0,*7C
1531069243.1,23464,24.25,74176.0,6.99,-20.15,-20.59,0,*74
1531069244.29,23465,24.25,74172.8,6.97,-20.09,-20.39,0,*70
1531069245.49,23466,24.25,74176.5,6.97,-20.29,-20.59,0,*77
1531069246.72,23467,24.25,74172.0,6.99,-20.25,-20.59,0,*74
1531069247.94,23468,24.25,74176.8,6.99,-20.29,-20.59,0,*77
1531069249.17,23469,24.25,74178.8,6.99,-20.43,-20.69,0,*79
1531069250.37,23470,24.25,74176.0,6.97,-20.29,-20.59,0,*70
1531069251.6,23471,24.25,74176.8,6.99,-20.43,-20.69,0,*70
1531069252.82,23472,24.25,74174.3,6.97,-20.49,-20.73,0,*7C
1531069254.04,23473,24.25,74176.5,6.97,-20.49,-20.73,0,*7D
1531069255.24,23474,24.25,74172.0,6.97,-20.73,-20.93,0,*7D
1531069256.46,23475,24.25,74178.5,6.97,-20.15,-20.43,0,*71
1531069257.7,23476,24.25,74174.3,6.97,-20.15,-20.35,0,*73
1531069258.93,23477,24.25,74176.8,6.97,-20.15,-20.43,0,*73
1531069260.15,23478,24.25,74178.8,6.97,-20.35,-20.63,0,*7C
1531069261.37,23479,24.25,74174.8,6.97,-20.35,-20.63,0,*7D
1531069262.59,23480,24.25,74178.0,6.97,-20.19,-20.59,0,*7C
1531069263.81,23481,24.25,74178.0,6.97,-20.19,-20.59,0,*7D
1531069265.03,23482,24.25,74174.5,6.97,-20.35,-20.63,0,*79
1531069266.28,23483,24.25,74176.8,6.97,-20.15,-20.49,0,*72
1531069267.5,23484,24.25,74176.0,6.97,-20.15,-20.43,0,*7F
1531069268.72,23485,24.25,74176.0,6.95,-20.05,-20.29,0,*71
1531069269.99,23486,24.25,74174.5,6.95,-20.19,-20.49,0,*79
1531069271.21,23487,24.25,74178.8,6.97,-19.95,-20.15,0,*7D
1531069272.44,23488,24.25,74178.0,6.97,-20.19,-20.43,0,*7F
1531069273.67,23489,24.25,74176.0,6.95,-20.43,-20.73,0,*70
1531069274.94,23490,24.25,74174.5,6.95,-20.19,-20.49,0,*7E
1531069276.19,23491,24.25,74178.8,6.95,-20.35,-20.63,0,*79
1531069277.44,23492,24.25,74172.0,6.95,-20.35,-20.59,0,*73
1531069278.69,23493,24.25,74172.8,6.95,-19.95,-20.19,0,*76
1531069279.94,23494,24.25,74176.3,6.95,-20.19,-20.59,0,*7B
1531069281.18,23495,24.25,74176.0,6.95,-19.85,-20.05,0,*7C
1531069282.41,23496,24.25,74178.5,6.95,-20.43,-20.73,0,*7E
1531069283.67,23497,24.25,74176.8,6.95,-20.49,-20.89,0,*70
1531069284.92,23498,24.25,74172.8,6.95,-20.15,-20.43,0,*70
1531069286.15,23499,24.25,74174.8,6.95,-20.43,-20.73,0,*71
1531069287.43,23500,24.25,74174.5,6.95,-20.19,-20.49,0,*76
1531069288.67,23501,24.25,74178.0,6.95,-20.15,-20.29,0,*7D
1531069289.9,23502,24.25,74176.8,6.95,-19.99,-20.29,0,*70
1531069291.14,23503,24.31,74176.5,6.95,-20.35,-20.63,0,*73
1531069292.37,23504,24.25,74178.8,6.95,-20.43,-20.63,0,*75
1531069293.58,23505,24.25,74178.5,6.97,-20.63,-20.93,0,*7B
1531069294.79,23506,24.25,74178.5,6.93,-20.35,-20.69,0,*7A
1531069295.99,23507,24.25,74178.5,6.93,-20.25,-20.69,0,*7A
1531069297.19,23508,24.25,74174.8,6.93,-20.25,-20.69,0,*75
1531069298.41,23509,24.25,74174.5,6.93,-20.19,-20.39,0,*7E
1531069299.62,23510,24.31,74176.3,6.93,-20.25,-20.39,0,*79
1531069300.83,23511,24.25,74176.5,6.93,-20.09,-20.35,0,*7A
1531069302.03,23512,24.25,74176.8,6.93,-20.25,-20.63,0,*74
1531069303.26,23513,24.25,74176.5,6.93,-20.19,-20.63,0,*7A
1531069304.46,23514,24.25,74174.5,6.93,-20.39,-20.69,0,*75
1531069305.68,23515,24.25,74176.3,6.93,-20.25,-20.53,0,*70
1531069306.9,23516,24.25,74172.8,6.95,-20.05,-20.29,0,*7A
1531069308.14,23517,24.25,74174.0,6.95,-20.05,-20.35,0,*76
1531069309.39,23518,24.25,74172.3,6.93,-20.19,-20.49,0,*79
1531069310.61,23519,24.25,74174.5,6.93,-20.05,-20.35,0,*7E
1531069311.84,23520,24.25,74170.8,6.93,-20.25,-20.49,0,*7D
1531069313.06,23521,24.25,74172.0,6.93,-20.09,-20.35,0,*79
1531069314.3,23522,24.25,74172.3,6.95,-19.81,-19.95,0,*76
1531069315.55,23523,24.31,74176.5,6.95,-20.49,-20.73,0,*7B
1531069316.78,23524,24.31,74176.5,6.93,-20.19,-20.39,0,*71
1531069317.97,23525,24.25,74174.3,6.93,-20.05,-20.25,0,*70
1531069319.22,23526,24.25,74172.8,6.95,-19.85,-20.05,0,*75
1531069320.42,23527,24.25,74174.5,6.93,-20.39,-20.69,0,*75
1531069321.62,23528,24.25,74176.3,6.93,-19.91,-20.25,0,*7A
1531069322.85,23529,24.31,74176.0,6.95,-19.95,-20.05,0,*7B
1531069324.1,23530,24.25,74174.5,6.95,-19.99,-20.15,0,*7E
1531069325.32,23531,24.25,74178.8,6.93,-19.99,-20.19,0,*75
1531069326.57,23532,24.25,74174.5,6.93,-20.53,-20.79,0,*7C
1531069327.79,23533,24.31,74174.5,6.95,-21.13,-21.39,0,*7B
1531069329.02,23534,24.25,74170.3,6.95,-20.59,-20.73,0,*7C
1531069330.27,23535,24.25,74172.0,6.93,-20.53,-20.83,0,*7E
1531069331.5,23536,24.25,74170.0,6.93,-20.63,-20.83,0,*7E
1531069332.7,23537,24.25,74174.0,6.93,-20.25,-20.63,0,*73
1531069333.92,23538,24.25,74172.3,6.93,-20.09,-20.49,0,*7A
1531069335.18,23539,24.25,74168.8,6.91,-20.69,-20.99,0,*72
1531069336.46,23540,24.25,74172.3,6.91,-20.19,-20.49,0,*76
1531069337.69,23541,24.25,74168.5,6.93,-20.19,-20.39,0,*72
1531069338.89,23542,24.31,74168.3,6.93,-20.93,-21.17,0,*7E
1531069340.09,23543,24.31,74172.8,6.89,-20.39,-20.69,0,*7C
1531069341.32,23544,24.31,74174.0,6.93,-19.91,-20.19,0,*7F
1531069342.58,23545,24.25,74172.8,6.91,-20.19,-20.39,0,*74
1531069343.81,23546,24.31,74174.0,6.91,-20.25,-20.39,0,*78
1531069345.04,23547,24.25,74170.3,6.91,-20.09,-20.39,0,*77
1531069346.3,23548,24.31,74172.3,6.91,-20.35,-20.63,0,*78
1531069347.53,23549,24.31,74172.3,6.91,-20.39,-20.69,0,*7F
1531069348.78,23550,24.31,74172.3,6.91,-20.35,-20.73,0,*70
1531069350.0,23551,24.25,74170.0,6.89,-20.73,-21.03,0,*7C
1531069351.26,23552,24.25,74172.8,6.91,-20.19,-20.39,0,*72
1531069352.52,23553,24.31,74176.3,6.91,-20.69,-20.99,0,*7E
1531069353.71,23554,24.31,74176.3,6.89,-20.29,-20.69,0,*7B
1531069354.92,23555,24.31,74174.3,6.89,-20.25,-20.59,0,*75
1531069356.17,23556,24.31,74172.8,6.91,-20.39,-20.83,0,*75
1531069357.41,23557,24.31,74174.5,6.89,-20.89,-21.23,0,*7D
1531069358.65,23558,24.31,74172.8,6.87,-20.59,-20.89,0,*70
1531069359.87,23559,24.31,74174.8,6.85,-20.79,-21.09,0,*78
1531069361.15,23560,24.31,74176.5,6.87,-21.03,-21.27,0,*70
1531069362.38,23561,24.31,74174.8,6.87,-20.63,-20.93,0,*78
1531069363.61,23562,24.31,74176.5,6.85,-20.73,-21.03,0,*70
1531069364.8,23563,24.25,74174.3,6.85,-20.29,-20.59,0,*70
1531069366.05,23564,24.31,74176.5,6.85,-20.49,-20.79,0,*73
1531069367.27,23565,24.31,74176.0,6.87,-20.29,-20.63,0,*7D
1531069368.49,23566,24.31,74176.5,6.85,-20.15,-20.29,0,*7D
1531069369.72,23567,24.31,74178.3,6.85,-20.19,-20.59,0,*77
1531069370.91,23568,24.31,74178.5,6.85,-20.29,-20.73,0,*73
1531069372.12,23569,24.31,74178.0,6.85,-20.59,-20.89,0,*70
1531069373.38,23570,24.31,74174.8,6.85,-20.79,-21.23,0,*7B
1531069374.6,23571,24.31,74176.5,6.85,-20.35,-20.59,0,*7E
1531069375.82,23572,24.31,74178.0,6.85,-20.35,-20.63,0,*74
1531069377.04,23573,24.31,74178.8,6.85,-20.09,-20.35,0,*79
1531069378.24,23574,24.31,74178.0,6.85,-20.29,-20.59,0,*76
1531069379.46,23575,24.31,74176.5,6.85,-20.35,-20.73,0,*72
1531069380.65,23576,24.31,74176.3,6.85,-20.29,-20.63,0,*7D
1531069381.91,23577,24.31,74178.0,6.83,-20.19,-20.49,0,*71
1531069383.15,23578,24.31,74178.3,6.83,-20.15,-20.35,0,*79
1531069384.36,23579,24.31,74178.0,6.83,-19.99,-20.25,0,*77
1531069385.61,23580,24.31,74178.5,6.85,-20.19,-20.49,0,*7F
1531069386.86,23581,24.25,74174.0,6.81,-20.15,-20.39,0,*71
1531069388.09,23582,24.25,74174.8,6.83,-20.39,-20.79,0,*7A
1531069389.33,23583,24.31,74178.5,6.83,-20.15,-20.35,0,*7D
1531069390.56,23584,24.31,74176.0,6.85,-20.15,-20.43,0,*7D
1531069391.78,23585,24.31,74176.3,6.83,-20.43,-20.79,0,*70
1531069392.99,23586,24.25,74172.3,6.83,-20.63,-20.93,0,*75
1531069394.21,23587,24.31,74176.0,6.83,-20.05,-20.35,0,*78
1531069395.43,23588,24.31,74176.3,6.83,-20.39,-20.79,0,*70
1531069396.67,23589,24.31,74176.3,6.81,-20.79,-21.09,0,*71
1531069397.92,23590,24.31,74178.8,6.83,-20.49,-20.83,0,*7B
1531069399.19,23591,24.31,74178.3,6.81,-20.35,-20.49,0,*75
1531069400.46,23592,24.31,74178.0,6.81,-20.19,-20.35,0,*73
1531069401.68,23593,24.31,74176.0,6.81,-20.39,-20.69,0,*79
1531069402.92,23594,24.31,74178.3,6.81,-20.79,-21.09,0,*7D
1531069404.16,23595,24.31,74176.0,6.81,-20.79,-21.09,0,*7C
1531069405.44,23596,24.31,74176.3,6.81,-20.19,-20.49,0,*7C
1531069406.7,23597,24.31,74176.3,6.81,-20.35,-20.79,0,*70
1531069407.95,23598,24.31,74176.8,6.81,-20.19,-20.39,0,*75
1531069409.22,23599,24.31,74176.5,6.81,-20.19,-20.49,0,*73
1531069410.49,23600,24.31,74180.0,6.81,-20.49,-20.79,0,*76
1531069411.74,23601,24.31,74178.8,6.81,-20.15,-20.39,0,*7A
1531069412.96,23602,24.31,74178.3,6.81,-20.05,-20.25,0,*75
1531069414.21,23603,24.31,74178.3,6.83,-20.49,-20.83,0,*72
1531069415.43,23604,24.31,74176.5,6.81,-20.93,-21.17,0,*7C
1531069416.65,23605,24.31,74178.3,6.79,-20.73,-21.03,0,*71
1531069417.85,23606,24.31,74178.0,6.79,-20.63,-20.93,0,*7B
1531069419.08,23607,24.31,74176.3,6.79,-19.95,-20.19,0,*7B
1531069420.32,23608,24.31,74176.5,6.79,-20.53,-20.83,0,*77
1531069421.53,23609,24.31,74176.8,6.79,-20.43,-20.63,0,*79
1531069422.75,23610,24.31,74176.0,6.79,-20.25,-20.53,0,*72
1531069423.95,23611,24.25,74172.5,6.79,-20.43,-20.73,0,*71
1531069425.16,23612,24.31,74174.8,6.75,-20.43,-20.73,0,*7E
1531069426.36,23613,24.31,74174.8,6.79,-20.39,-20.59,0,*76
1531069427.56,23614,24.31,74176.3,6.75,-20.29,-20.59,0,*7C
1531069428.78,23615,24.31,74174.0,6.75,-20.35,-20.73,0,*78
1531069429.98,23616,24.31,74174.8,6.79,-20.09,-20.43,0,*7B
1531069431.22,23617,24.31,74178.3,6.75,-20.15,-20.35,0,*7A
1531069432.47,23618,24.31,74174.8,6.81,-20.19,-20.39,0,*7E
1531069433.67,23619,24.31,74178.8,6.79,-20.29,-20.59,0,*7D
1531069434.89,23620,24.31,74178.5,6.79,-20.43,-20.83,0,*7C
1531069436.12,23621,24.31,74176.8,6.79,-20.53,-20.89,0,*76
1531069437.34,23622,24.31,74178.3,6.75,-20.59,-20.89,0,*73
1531069438.56,23623,24.31,74176.5,6.75,-20.73,-21.03,0,*79
1531069439.81,23624,24.31,74170.0,6.75,-20.49,-20.79,0,*7B
1531069441.03,23625,24.31,74174.3,6.79,-20.19,-20.43,0,*7A
1531069442.23,23626,24.31,74172.5,6.75,-20.29,-20.59,0,*7D
1531069443.43,23627,24.31,74176.3,6.75,-20.73,-20.93,0,*75
1531069444.67,23628,24.31,74174.5,6.75,-20.89,-21.23,0,*75
1531069445.9,23629,24.31,74176.3,6.75,-20.59,-20.79,0,*77
1531069447.12,23630,24.31,74174.8,6.75,-20.35,-20.63,0,*7E
1531069448.39,23631,24.31,74168.8,6.73,-20.49,-20.79,0,*79
1531069449.64,23632,24.31,74172.3,6.73,-20.15,-20.43,0,*7A
1531069450.9,23633,24.31,74174.5,6.73,-20.43,-20.79,0,*71
1531069452.12,23634,24.31,74172.0,6.71,-20.79,-21.09,0,*7B
1531069453.34,23635,24.31,74176.8,6.73,-20.25,-20.59,0,*75
1531069454.58,23636,24.31,74178.8,6.73,-20.43,-20.89,0,*7B
1531069455.81,23637,24.31,74174.8,6.71,-20.83,-21.13,0,*76
1531069457.03,23638,24.31,74176.5,6.73,-20.89,-21.09,0,*7A
1531069458.29,23639,24.31,74176.0,6.73,-20.89,-21.23,0,*73
1531069459.51,23640,24.31,74174.0,6.71,-21.27,-21.73,0,*7F
1531069460.74,23641,24.31,74176.5,6.71,-20.53,-20.93,0,*73
1531069461.97,23642,24.31,74178.3,6.71,-20.35,-20.63,0,*7F
1531069463.22,23643,24.31,74174.3,6.67,-20.53,-20.99,0,*7C
1531069464.47,23644,24.31,74176.8,6.69,-20.35,-20.69,0,*7A
1531069465.71,23645,24.31,74178.0,6.69,-20.05,-20.19,0,*7F
1531069466.96,23646,24.31,74176.0,6.69,-19.91,-20.15,0,*77
1531069468.18,23647,24.31,74174.5,6.69,-20.39,-20.69,0,*75
1531069469.45,23648,24.31,74174.0,6.69,-20.49,-20.79,0,*7C
1531069470.71,23649,24.31,74172.5,6.69,-20.63,-20.99,0,*7B
1531069471.95,23650,24.31,74174.3,6.69,-20.15,-20.29,0,*79
1531069473.17,23651,24.31,74174.0,6.69,-20.29,-20.63,0,*79
1531069474.42,23652,24.31,74174.5,6.69,-19.91,-20.15,0,*72
1531069475.64,23653,24.31,74168.5,6.67,-20.25,-20.35,0,*7A
1531069476.89,23654,24.31,74174.5,6.69,-20.29,-20.53,0,*7F
1531069478.09,23655,24.31,74170.0,6.67,-20.25,-20.59,0,*76
1531069479.34,23656,24.31,74170.8,6.69,-20.35,-20.63,0,*73
1531069480.59,23657,24.31,74172.5,6.69,-20.35,-20.63,0,*72
1531069481.84,23658,24.31,74174.5,6.67,-20.19,-20.53,0,*7E
1531069483.09,23659,24.31,74176.0,6.69,-20.39,-20.79,0,*7B
1531069484.32,23660,24.31,74174.3,6.67,-20.35,-20.63,0,*78
1531069485.54,23661,24.31,74172.3,6.69,-20.29,-20.63,0,*7A
1531069486.81,23662,24.31,74170.8,6.69,-20.15,-20.49,0,*7E
1531069488.02,23663,24.31,74174.8,6.67,-20.05,-20.43,0,*7A
1531069489.27,23664,24.31,74176.0,6.69,-20.39,-20.79,0,*75
1531069490.48,23665,24.31,74174.0,6.67,-20.43,-20.73,0,*7D
1531069491.72,23666,24.31,74174.0,6.67,-20.53,-20.89,0,*7A
1531069492.95,23667,24.31,74176.5,6.67,-20.43,-20.83,0,*70
1531069494.16,23668,24.31,74174.0,6.67,-20.09,-20.43,0,*7D
1531069495.37,23669,24.31,74178.3,6.67,-19.95,-20.25,0,*73
1531069496.6,23670,24.31,74176.0,6.67,-20.19,-20.43,0,*75
1531069497.81,23671,24.31,74178.5,6.67,-19.95,-20.25,0,*7A
1531069499.07,23672,24.31,74180.3,6.69,-20.19,-20.39,0,*74
1531069500.29,23673,24.31,74182.0,6.67,-20.09,-20.35,0,*76
1531069501.51,23674,24.31,74176.3,6.69,-20.05,-20.29,0,*7E
1531069502.73,23675,24.31,74176.0,6.67,-20.35,-20.69,0,*76
1531069503.98,23676,24.31,74178.8,6.67,-20.35,-20.53,0,*7C
1531069505.18,23677,24.31,74186.0,6.67,-20.09,-20.25,0,*73
1531069506.41,23678,24.31,74184.8,6.67,-19.81,-20.09,0,*78
1531069507.62,23679,24.31,74180.8,6.67,-20.39,-20.59,0,*75
1531069508.85,23680,24.31,74176.5,6.67,-20.19,-20.43,0,*7A
1531069510.05,23681,24.31,74176.5,6.67,-20.05,-20.25,0,*76
1531069511.3,23682,24.31,74178.3,6.69,-19.99,-20.15,0,*77
1531069512.52,23683,24.31,74178.5,6.67,-19.81,-20.05,0,*70
1531069513.77,23684,24.31,74180.3,6.67,-19.81,-20.19,0,*7A
1531069515.02,23685,24.31,74182.8,6.69,-19.47,-19.85,0,*70
1531069516.23,23686,24.31,74184.5,6.67,-20.43,-20.89,0,*75
1531069517.47,23687,24.31,74186.0,6.67,-20.25,-20.53,0,*73
1531069518.68,23688,24.31,74186.5,6.67,-20.43,-20.69,0,*75
1531069519.91,23689,24.31,74184.3,6.67,-20.53,-20.89,0,*7B
1531069521.14,23690,24.31,74178.3,6.67,-20.69,-20.99,0,*7B
1531069522.38,23691,24.31,74182.0,6.67,-20.53,-20.89,0,*72
1531069523.59,23692,24.31,74176.0,6.67,-20.39,-20.69,0,*73
1531069524.79,23693,24.31,74176.3,6.67,-20.09,-20.25,0,*79
1531069526.02,23694,24.31,74178.0,6.67,-20.05,-20.35,0,*73
1531069527.29,23695,24.31,74180.3,6.69,-20.19,-20.49,0,*7A
1531069528.53,23696,24.31,74174.8,6.67,-20.59,-21.03,0,*7C
1531069529.76,23697,24.31,74178.5,6.67,-20.53,-20.73,0,*71
1531069530.98,23698,24.31,74176.8,6.67,-20.05,-20.35,0,*7F
1531069532.2,23699,24.31,74178.3,6.67,-19.95,-20.25,0,*7C
1531069533.41,23700,24.31,74180.3,6.67,-19.95,-20.25,0,*7D
1531069534.61,23701,24.31,74180.8,6.67,-19.91,-20.09,0,*76
1531069535.84,23702,24.31,74182.0,6.67,-20.09,-20.53,0,*71
1531069537.08,23703,24.31,74182.5,6.67,-20.53,-20.89,0,*78
1531069538.28,23704,24.31,74184.8,6.67,-20.05,-20.25,0,*7A
1531069539.51,23705,24.31,74184.5,6.67,-20.35,-20.59,0,*73
1531069540.74,23706,24.31,74182.0,6.67,-20.25,-20.53,0,*7B
1531069541.95,23707,24.31,74176.8,6.67,-20.25,-20.59,0,*70
1531069543.19,23708,24.31,74176.3,6.67,-20.59,-21.03,0,*7A
1531069544.41,23709,24.31,74178.0,6.65,-20.09,-20.39,0,*74
1531069545.66,23710,24.31,74176.0,6.65,-19.95,-20.15,0,*7D
1531069546.91,23711,24.31,74178.3,6.65,-20.49,-20.93,0,*79
1531069548.13,23712,24.38,74182.8,6.63,-20.43,-20.63,0,*79
1531069549.38,23713,24.31,74176.0,6.67,-20.19,-20.53,0,*70
1531069550.6,23714,24.31,74178.8,6.65,-20.09,-20.29,0,*79
1531069551.8,23715,24.31,74176.3,6.63,-20.29,-20.59,0,*7B
1531069553.01,23716,24.31,74180.8,6.63,-20.43,-20.89,0,*79
1531069554.24,23717,24.31,74178.5,6.63,-20.15,-20.39,0,*70
1531069555.45,23718,24.31,74178.5,6.63,-19.99,-20.25,0,*7C
1531069556.66,23719,24.31,74182.0,6.63,-19.99,-20.25,0,*7D
1531069557.89,23720,24.31,74180.0,6.63,-20.59,-21.03,0,*74
1531069559.11,23721,24.31,74176.8,6.65,-20.29,-20.39,0,*7C
1531069560.34,23722,24.31,74174.3,6.63,-20.15,-20.39,0,*76
1531069561.59,23723,24.31,74176.5,6.65,-20.09,-20.49,0,*7B
1531069562.82,23724,24.31,74174.5,6.63,-20.15,-20.25,0,*7D
1531069564.02,23725,24.31,74176.8,6.63,-20.09,-20.59,0,*7A
1531069565.23,23726,24.31,74178.5,6.63,-20.39,-20.73,0,*72
1531069566.46,23727,24.31,74174.3,6.65,-20.09,-20.39,0,*78
1531069567.69,23728,24.31,74174.5,6.63,-20.59,-21.03,0,*7C
1531069568.9,23729,24.31,74178.0,6.63,-20.43,-20.73,0,*70
1531069570.13,23730,24.31,74178.5,6.63,-20.15,-20.39,0,*75
1531069571.38,23731,24.31,74178.3,6.63,-20.15,-20.49,0,*73
1531069572.61,23732,24.31,74178.3,6.63,-20.59,-21.03,0,*77
1531069573.84,23733,24.31,74176.8,6.63,-20.09,-20.49,0,*7C
1531069575.05,23734,24.31,74178.3,6.63,-20.43,-20.73,0,*7C
1531069576.25,23735,24.31,74178.8,6.63,-20.89,-21.39,0,*74
1531069577.53,23736,24.31,74178.0,6.61,-20.49,-20.83,0,*79
1531069578.75,23737,24.31,74176.0,6.61,-20.29,-20.63,0,*70
1531069579.98,23738,24.31,74178.5,6.59,-20.53,-21.09,0,*74
1531069581.21,23739,24.31,74178.3,6.61,-20.93,-21.39,0,*71
1531069582.46,23740,24.31,74178.5,6.61,-20.63,-20.99,0,*7B
1531069583.69,23741,24.38,74178.0,6.59,-20.69,-20.99,0,*7B
1531069584.89,23742,24.31,74180.3,6.59,-20.63,-21.09,0,*7A
1531069586.13,23743,24.38,74180.5,6.59,-20.63,-20.99,0,*73
1531069587.38,23744,24.31,74176.5,6.57,-21.03,-21.43,0,*7B
1531069588.63,23745,24.38,74176.3,6.53,-20.93,-21.33,0,*71
1531069589.88,23746,24.31,74176.8,6.53,-20.63,-21.03,0,*7E
1531069591.12,23747,24.31,74174.5,6.53,-20.43,-20.89,0,*7E
1531069592.4,23748,24.31,74172.5,6.57,-20.49,-20.83,0,*75
1531069593.62,23749,24.38,74170.5,6.53,-20.73,-21.17,0,*75
1531069594.9,23750,24.31,74170.0,6.57,-21.33,-21.83,0,*71
1531069596.18,23751,24.31,74172.0,6.53,-21.23,-21.67,0,*7F
1531069597.41,23752,24.31,74174.5,6.49,-20.99,-21.39,0,*7C
1531069598.65,23753,24.31,74178.0,6.51,-20.73,-21.33,0,*7A
1531069599.9,23754,24.38,74176.8,6.51,-20.73,-21.03,0,*7E
1531069601.13,23755,24.31,74172.8,6.49,-21.13,-21.53,0,*74
1531069602.39,23756,24.31,74174.5,6.49,-21.53,-21.87,0,*7A
1531069603.65,23757,24.31,74174.5,6.49,-20.79,-21.23,0,*7C
1531069604.9,23758,24.31,74178.5,6.47,-20.83,-21.13,0,*7B
1531069606.15,23759,24.31,74178.8,6.47,-20.69,-20.99,0,*7D
1531069607.37,23760,24.38,74178.8,6.47,-20.69,-21.13,0,*74
1531069608.62,23761,24.31,74174.8,6.47,-21.03,-21.47,0,*79
1531069609.82,23762,24.31,74178.3,6.45,-20.73,-21.17,0,*7B
1531069611.04,23763,24.38,74178.8,6.45,-21.03,-21.43,0,*7D
1531069612.23,23764,24.31,74178.8,6.45,-21.13,-21.43,0,*7B
1531069613.43,23765,24.31,74174.8,6.45,-21.13,-21.47,0,*7E
1531069614.71,23766,24.31,74172.5,6.43,-21.23,-21.53,0,*7D
1531069615.93,23767,24.31,74174.5,6.41,-21.23,-21.73,0,*7C
1531069617.18,23768,24.38,74176.0,6.43,-21.47,-21.83,0,*7C
1531069618.38,23769,24.31,74172.5,6.41,-21.17,-21.63,0,*74
1531069619.65,23770,24.38,74178.3,6.39,-21.23,-21.57,0,*73
1531069620.88,23771,24.38,74176.5,6.37,-21.27,-21.63,0,*7F
1531069622.1,23772,24.31,74172.5,6.37,-20.99,-21.43,0,*7A
1531069623.35,23773,24.38,74176.3,6.39,-20.79,-21.13,0,*7E
1531069624.58,23774,24.38,74176.3,6.37,-20.89,-21.27,0,*7F
1531069625.8,23775,24.31,74178.5,6.37,-20.89,-21.33,0,*7B
1531069627.03,23776,24.38,74178.5,6.37,-20.99,-21.17,0,*7F
1531069628.28,23777,24.38,74176.3,6.37,-20.79,-21.03,0,*75
1531069629.53,23778,24.38,74178.3,6.35,-20.83,-21.13,0,*7C
1531069630.81,23779,24.38,74176.3,6.35,-20.53,-20.99,0,*73
1531069632.07,23780,24.38,74178.0,6.35,-20.69,-20.99,0,*7C
1531069633.34,23781,24.38,74174.3,6.35,-20.99,-21.33,0,*73
1531069634.6,23782,24.38,74174.5,6.35,-20.89,-21.33,0,*71
1531069635.89,23783,24.38,74174.5,6.31,-21.53,-21.87,0,*7D
1531069637.14,23784,24.31,74174.8,6.31,-21.33,-21.63,0,*76
1531069638.36,23785,24.38,74176.3,6.29,-20.99,-21.43,0,*7D
1531069639.58,23786,24.38,74178.8,6.29,-20.79,-21.13,0,*75
1531069640.86,23787,24.38,74176.0,6.27,-20.99,-21.57,0,*74
1531069642.09,23788,24.38,74178.8,6.29,-20.99,-21.39,0,*7D
1531069643.38,23789,24.38,74178.8,6.27,-20.79,-21.23,0,*77
1531069644.66,23790,24.38,74174.3,6.27,-20.99,-21.57,0,*72
1531069645.89,23791,24.38,74176.5,6.27,-20.93,-21.39,0,*71
1531069647.12,23792,24.38,74176.5,6.25,-21.03,-21.43,0,*75
1531069648.35,23793,24.38,74174.5,6.25,-21.03,-21.47,0,*70
1531069649.56,23794,24.31,74172.8,6.25,-21.17,-21.63,0,*74
1531069650.81,23795,24.38,74172.8,6.23,-21.13,-21.57,0,*70
1531069652.06,23796,24.38,74178.0,6.23,-20.99,-21.43,0,*75
1531069653.35,23797,24.38,74180.3,6.23,-20.79,-21.27,0,*78
1531069654.63,23798,24.31,74174.0,6.23,-20.83,-21.27,0,*72
1531069655.89,23799,24.31,74176.8,6.23,-21.03,-21.43,0,*78
1531069657.17,23800,24.38,74178.8,6.23,-20.99,-21.33,0,*72
1531069658.4,23801,24.38,74178.3,6.21,-20.99,-21.39,0,*7B
1531069659.63,23802,24.38,74174.3,6.19,-21.09,-21.53,0,*77
1531069660.86,23803,24.31,74172.0,6.19,-21.03,-21.39,0,*70
1531069662.08,23804,24.38,74176.8,6.21,-20.73,-20.99,0,*71
1531069663.34,23805,24.38,74174.8,6.21,-21.03,-21.53,0,*71
1531069664.54,23806,24.38,74180.3,6.19,-20.73,-21.17,0,*7F
1531069665.74,23807,24.38,74178.3,6.19,-20.69,-21.09,0,*7A
1531069666.95,23808,24.38,74172.3,6.19,-21.63,-21.93,0,*7D
1531069668.2,23809,24.38,74176.8,6.17,-21.39,-21.83,0,*7C
1531069669.43,23810,24.38,74176.5,6.17,-20.93,-21.13,0,*7C
1531069670.66,23811,24.38,74178.5,6.17,-20.93,-21.43,0,*78
1531069671.91,23812,24.38,74176.8,6.17,-21.27,-21.73,0,*76
1531069673.14,23813,24.38,74174.3,6.15,-21.27,-21.77,0,*71
1531069674.36,23814,24.38,74178.5,6.13,-21.13,-21.47,0,*74
1531069675.59,23815,24.38,74178.0,6.13,-21.17,-21.63,0,*77
1531069676.81,23816,24.38,74174.8,6.15,-21.09,-21.57,0,*7A
1531069678.03,23817,24.38,74178.0,6.15,-20.99,-21.43,0,*76
1531069679.24,23818,24.38,74178.0,6.15,-21.17,-21.63,0,*7C
1531069680.49,23819,24.38,74180.3,6.09,-20.99,-21.47,0,*71
1531069681.77,23820,24.38,74178.5,6.13,-20.99,-21.33,0,*73
1531069683.0,23821,24.38,74178.5,6.09,-21.13,-21.63,0,*7F
1531069684.26,23822,24.38,74176.5,6.09,-20.99,-21.39,0,*70
1531069685.52,23823,24.38,74174.0,6.09,-20.99,-21.39,0,*71
1531069686.76,23824,24.38,74176.5,6.09,-20.89,-21.39,0,*77
1531069688.0,23825,24.38,74176.0,6.07,-20.59,-20.99,0,*7E
1531069689.25,23826,24.38,74176.3,6.09,-20.43,-20.89,0,*79
1531069690.46,23827,24.38,74174.3,6.07,-20.59,-21.13,0,*7F
1531069691.7,23828,24.38,74174.5,6.07,-20.59,-20.99,0,*73
1531069692.94,23829,24.38,74174.3,6.07,-20.59,-21.03,0,*70
1531069694.18,23830,24.38,74174.8,6.07,-20.43,-20.83,0,*7A
1531069695.42,23831,24.38,74172.5,6.09,-20.39,-20.69,0,*7C
1531069696.68,23832,24.38,74174.8,6.09,-20.69,-21.03,0,*77
1531069697.91,23833,24.38,74172.3,6.07,-20.83,-21.13,0,*7D
1531069699.15,23834,24.38,74168.0,6.05,-20.59,-20.93,0,*76
1531069700.41,23835,24.38,74170.8,6.05,-20.89,-21.27,0,*74
1531069701.66,23836,24.38,74172.0,6.07,-20.89,-21.23,0,*71